Voltar ao catálogo

COSMOS 1579 COOLANT

LostLEO
NORAD 27573·DEBRIS·🇷🇺 Russia

Lançado Jun 29, 1984 de Baikonur Cosmodrome

Loading…

Próximas Passagens (próximas 24 horas)

TLE

ObsoletoSource: Space-Track

Época: May 27, 2026, 01:06 UTC

1 27573U 84069X   26147.04608312  .00000266  00000-0  27041-3 0  9996
2 27573  65.0443 261.4374 0040608   1.8807 175.5755 13.93407866221138

Acompanhe COSMOS 1579 COOLANT em tempo real com AllMySat

Download on the App Store